SL-8 DEB, 1477

Orbit data source: Space-Track

SL-8 DEB, 1477 is space debris in LEO originally from a launch on Mon, 15 Mar 1965 UTC launched from the Tyuratam Missile And Space Complex (TTMTR). Debris objects in space refer to the collection of defunct objects orbiting the Earth. Examples of debris include non-operational satellites, rocket bodies, and fragments generated from explosions, collisions, or faulty payload assembly.

Loading next visibility...
Identifier
1477, 1965-020BB
Orbit
LEO
Country
Flag of CISCIS
Related business
Manufacturer
Unknown
Mission
Spacecraft
Bus & Motor
Unknown
Mass
Unknown
Launch date (UTC)
1965-03-15 (61 years ago)
Launch vehicle
Unknown
Launch site
Tyuratam Missile And Space Complex (TTMTR)
Object type
Payload
Rocket body
Debris
Shape & HBR
Unknown shape, 0.2 m
Radar Cross Section
Medium (>0.1 m² and <1 m²)

Expand to show TLE details & history
Last TLE update: 1 day ago

TLE from 1 day ago
0 SL-8 DEB
1 01477U 65020BB  26174.55223948  .00001209  00000-0  19529-2 0  9990
2 01477  55.4908 230.0324 0588010 332.9769  24.1629 12.99727903879048
Epoch: 2026-06-23T13:15Z
TLE epoch observation values (Epoch: 2026-06-23T13:15:13.491Z)
Latitude
-0.00002°
Longitude
119.50401°
Altitude
859.057 km
Speed
7.618 km/s
True Right ascension
15h 20m 07s
True Declination
0° 00' 00"
Sunlit
Object was in full shadow at epoch
Visualization orbit readout
Latitude
Unknown
Longitude
Unknown
Altitude
Unknown
Speed
Unknown
Apparent Right ascension
Unknown
Apparent Declination
Unknown
Sunlit
N/A
Visualization observer readout
Local Sidereal Time
02:57:51
Azimuth
Unknown
Elevation
Unknown
Doppler factor
Unknown
Orbital elements
Apogee altitude
1,712.363 km
Perigee altitude
813.744 km
Semi-major axis
7,641.191 km
Eccentricity
0.0588
Inclination
55.4908°
RAAN
230.0324°
Arg. of periapsis
332.9769°
True anomaly
27.11734°
Mean anomaly
24.1629°
Eccentric anomaly
25.61966°
Mean motion
3.24939 °/min
Orbital period
110.79 mins
BSTAR
0.0019529
Loading maneuver chart data...
Computing Atmospheric mass density...

Documentation

Showing up to 5 results
|